This is the latest recevied weather packets stored in our database for station/object W5ITZ. If no packets are shown the sender has not sent any weather packets the latest 10 day(s).
| Time | Temp. | Humidity | Pressure | Rain* | Wind** | Luminosity | Snow |
|---|---|---|---|---|---|---|---|
| 1778013773 | 27.78° C | 80% | 1008.1 hPa | 0 mm | - | 284 W/m² | - |
| 1778013470 | 27.78° C | 78% | 1008.1 hPa | 0 mm | - | 270 W/m² | - |
| 1778013167 | 27.22° C | 79% | 1008.1 hPa | 0 mm | - | 309 W/m² | - |
| 1778012863 | 27.22° C | 81% | 1008.2 hPa | 0 mm | - | 327 W/m² | - |
| 1778012559 | 27.22° C | 82% | 1008.3 hPa | 0 mm | - | 281 W/m² | - |
| 1778012256 | 27.22° C | 78% | 1008.5 hPa | 0 mm | - | 190 W/m² | - |
| 1778011954 | 27.22° C | 78% | 1008.3 hPa | 0 mm | - | 211 W/m² | - |
| 1778011652 | 27.22° C | 77% | 1008.6 hPa | 0 mm | - | 244 W/m² | - |
| 1778011349 | 27.22° C | 78% | 1008.4 hPa | 0 mm | - | 234 W/m² | - |
| 1778011044 | 27.22° C | 79% | 1008.6 hPa | 0 mm | - | 343 W/m² | - |
| 1778010742 | 27.22° C | 78% | 1008.6 hPa | 0 mm | - | 124 W/m² | - |
| 1778010439 | 27.22° C | 78% | 1008.6 hPa | 0 mm | - | 137 W/m² | - |
| 1778010135 | 27.22° C | 78% | 1008.6 hPa | 0 mm | - | 197 W/m² | - |
| 1778009831 | 26.67° C | 78% | 1008.6 hPa | 0 mm | - | 235 W/m² | - |
| 1778009529 | 27.22° C | 79% | 1008.8 hPa | 0 mm | - | 138 W/m² | - |
| 1778009227 | 27.22° C | 78% | 1008.6 hPa | 0 mm | - | 204 W/m² | - |
| 1778008924 | 26.67° C | 79% | 1008.7 hPa | 0 mm | - | 266 W/m² | - |
| 1778008622 | 26.67° C | 79% | 1008.7 hPa | 0 mm | - | 181 W/m² | - |
| 1778008320 | 26.67° C | 78% | 1008.7 hPa | 0 mm | - | 125 W/m² | - |
| 1778008016 | 26.67° C | 78% | 1008.6 hPa | 0 mm | - | 229 W/m² | - |
| 1778007716 | 27.22° C | 78% | 1008.8 hPa | 0 mm | - | 161 W/m² | - |
| 1778007413 | 27.22° C | 77% | 1008.6 hPa | 0 mm | - | 101 W/m² | - |
| 1778007110 | 27.22° C | 78% | 1008.9 hPa | 0 mm | - | 324 W/m² | - |
| 1778006806 | 27.22° C | 78% | 1009 hPa | 0 mm | - | 212 W/m² | - |
| 1778006503 | 27.22° C | 78% | 1009.1 hPa | 0 mm | - | 153 W/m² | - |
* Rain latest hour (hover to see other rain measurements)
** Current wind speed in m/s (hover to see current wind gust speed)